Regional Weather Roundup
Issued by NWS Sioux Falls, SD

Home | Current Version | Previous Version | Text Only | Print | Product List | Glossary On
Versions: 1 2 3 4 5 6 7 8 9 10 11 12 13 14 15 16 17 18 19 20 21 22 23 24 25 26 27 28 29 30 31 32 33 34 35 36 37 38 39 40 41 42 43 44 45 46 47 48 49 50
000
ASUS43 KFSD 270410
RWRFSD

WEATHER ROUNDUP FOR SE SOUTH DAKOTA/SW MINNESOTA/NW IOWA
NATIONAL WEATHER SERVICE SIOUX FALLS SD
1000 PM CST WED NOV 26 2014

NOTE: "FAIR" INDICATES FEW OR NO CLOUDS BELOW 12,000 FEET WITH NO
SIGNIFICANT WEATHER AND OR OBSTRUCTIONS TO VISIBILITY.


SDZ038>040-050-052>070-270500-
SOUTHEAST SOUTH DAKOTA

CITY           SKY/WX    TMP DP  RH WIND       PRES   REMARKS
CHAMBERLAIN    CLOUDY    13   3  65 NE8       30.43R WCI   1
HURON          CLEAR      3  -2  79 N5        30.50R WCI  -6
MADISON        FAIR       3   0  85 N7        30.41S WCI  -9
MITCHELL       CLOUDY    10   3  73 N12       30.49R WCI  -5
SIOUX FALLS    PTCLDY     8   0  69 N7        30.43R WCI  -3
WINNER         CLOUDY    19  10  68 E8        30.40R WCI   9
YANKTON        CLOUDY    12   5  73 NW9       30.47S WCI   0
$$

MNZ071-072-080-081-089-090-097-098-270500-
SOUTHWEST MINNESOTA

CITY           SKY/WX    TMP DP  RH WIND       PRES   REMARKS
FAIRMONT       CLOUDY     9   3  78 NW18      30.35S WCI -10
JACKSON        CLOUDY    10   3  72 NW20G25   30.37R WCI  -8
LUVERNE        PTCLDY    12   1  62 N9        30.42R WCI   0
MARSHALL       PTCLDY     3  -8  60 N21       30.43R WCI -18
MONTEVIDEO     PTCLDY     0  -6  78 N12       30.48R WCI -18
PIPESTONE      PTCLDY     7  -8  51 N8        30.40R WCI  -6
REDWOOD FALLS  MOCLDY     5  -2  72 NW10      30.42R WCI -10
TRACY          MOCLDY     6  -1  72 NW16G24   30.41S WCI -13
WINDOM         CLOUDY     7   1  78 NW16G26   30.38R WCI -11
WORTHINGTON    CLOUDY     7   0  72 N18       30.38R WCI -12
$$

IAZ001>003-012>014-020>022-031-032-NEZ013-014-SDZ071-270500-
NORTHWEST IOWA

CITY           SKY/WX    TMP DP  RH WIND       PRES   REMARKS
CHEROKEE       CLOUDY    11   8  85 N5        30.42R WCI   3
DENISON        CLOUDY    19  16  86 NW17      30.38R WCI   4
ESTHERVILLE    CLOUDY     9   5  84 NW18      30.37R WCI -10
LE MARS        CLOUDY    12   9  85 CALM      30.44R
ORANGE CITY    CLOUDY    16   3  57 N8        30.40R WCI   5
SHELDON        CLOUDY    12   3  67 N15       30.39R WCI  -4
SIOUX CITY     CLOUDY    17  11  77 NW10      30.45R WCI   5
SPENCER        CLOUDY    12   4  70 N14       30.39R WCI  -3
STORM LAKE     CLOUDY    12   9  85 NW12      30.39R WCI  -2
$$

ABBREVIATIONS USED IN REMARKS
   TC - TEMPERATURE IN CELSIUS
  WCI - WIND CHILL INDEX
   HX - HEAT INDEX
  VSB - VISIBILITY



USA.gov is the U.S. government's official web portal to all federal, state and local government web resources and services.